User: anonymous   Login
Location: Unspecified
(0.0000°N, 0.0000°E)
Time: 18:16:08
(UTC+00:00)
Language:

GALILEO 9 (205) - Orbit

View from above orbital plane
View from above orbital plane
View from above satellite
View from above satellite

Ground track
Ground track

The orbit data is extracted from the following two-line orbital elements,

1 40889U 15045A   21025.07196874  .00000022  00000-0  00000-0 0  9990
2 40889  55.9805 275.9960 0005882  13.1056 346.9891  1.70474812 33448
Epoch (UTC): 25 January 2021 01:43:38
Eccentricity: 0.0005882
inclination: 55.9805°
perigee height: 23204 km
apogee height: 23239 km
right ascension of ascending node: 275.9960°
argument of perigee: 13.1056°
revolutions per day: 1.70474812
mean anomaly at epoch: 346.9891°
orbit number at epoch: 3344

The dashed part of the orbit path shows where the satellite is in the earth's shadow,  

DLR